Kuchera_Ratio
0.0 0.0 0.0 0.0 0.0 0.0 0.0 0.0 9.5 0.0 0.0 7.5 7.3 12.1 8.1 0.0 2.0 0.0 0.0 1.3 3.5 5.1 3.9 7.9 6.5 4.9 0.0 0.0 0.0 0.0 0.0 2.7 7.9 0.0 0.0 0.0 0.0 0.0 0.0 0.0 1.3 0.0 0.0 0.0
0.0 0.0 0.0 0.0 0.0 0.0 0.0 4.9 4.3 0.0 0.0 13.0 12.2 5.3 5.5 2.9 3.9 3.7 3.7 4.9 0.7 2.7 5.9 11.1 4.8 2.4 0.0 0.0 0.0 0.0 0.0 4.1 10.1 4.1 0.0 0.0 0.0 0.0 0.0 0.0 0.0 0.0 2.1 0.0
0.0 0.0 0.0 0.0 0.0 0.0 0.0 4.3 12.2 6.1 1.7 2.7 8.3 10.1 10.5 9.9 0.7 2.9 1.3 2.9 0.4 5.3 8.4 3.9 7.9 5.2 0.0 0.0 0.0 0.0 0.0 2.1 6.1 10.3 5.5 0.0 0.7 0.0 0.0 0.0 0.9 0.1 0.0 0.0
0.0 0.0 0.0 0.0 0.0 0.0 0.0 4.7 9.5 4.1 13.0 10.1 8.7 7.3 6.5 10.5 10.5 1.5 0.0 6.1 5.7 6.7 10.5 9.1 9.3 3.9 1.7 0.0 0.0 0.0 0.0 8.7 2.1 0.9 0.0 0.7 1.3 0.0 0.0 0.0 0.0 0.0 0.0 0.0
0.0 0.0 0.0 0.0 0.0 0.0 0.0 7.5 7.9 4.5 7.0 5.5 6.7 7.5 9.9 9.7 5.9 3.7 6.1 7.7 2.3 3.1 10.5 7.5 9.9 4.9 4.5 2.8 0.0 0.0 0.0 9.5 2.9 7.5 0.0 0.0 0.9 0.0 0.0 0.0 0.0 0.0 0.0 0.0
0.0 0.0 0.0 0.0 0.0 0.0 0.3 0.0 0.0 2.9 4.7 8.1 9.5 8.9 7.5 5.9 2.1 0.7 0.0 0.9 4.3 6.9 4.1 0.0 0.0 0.0 0.0 0.0 2.7 3.7 3.5 6.3 6.1 9.9 1.5 4.1 7.1 0.0 0.0 0.0 0.0 0.0 0.0 0.0
0.0 0.0 0.0 0.0 0.0 0.0 0.0 0.0 1.3 6.7 12.3 9.3 8.1 3.9 3.3 4.1 1.7 5.3 0.0 0.0 4.5 0.0 0.0 0.0 0.0 0.0 0.0 0.0 0.5 0.0 4.3 5.5 6.7 10.1 6.8 12.9 0.0 0.0 0.0 0.0 0.0 0.0 0.0 0.0
0.0 0.0 0.0 0.0 0.0 0.0 0.0 0.0 0.0 4.7 10.9 6.3 5.1 3.1 2.9 0.1 0.0 1.5 0.9 0.0 0.0 0.0 0.0 6.7 9.9 9.9 7.2 4.2 1.2 2.1 0.0 2.3 9.5 10.9 9.9 5.7 0.0 0.0 0.0 0.0 0.0 0.0 0.0 0.0
0.0 0.0 0.0 0.0 0.0 0.0 0.0 0.0 0.0 0.5 6.9 7.3 0.0 5.9 3.1 7.3 6.3 4.1 1.5 0.0 0.0 0.0 4.7 9.3 13.8 15.2 10.2 10.4 4.3 0.0 0.0 0.0 6.7 8.9 12.8 13.6 0.0 0.0 0.0 0.0 2.9 0.0 0.0 0.0
0.0 0.0 0.0 0.0 0.0 0.0 0.0 0.0 0.0 0.0 6.7 1.1 0.0 4.5 4.9 0.0 1.5 6.3 1.1 0.0 0.7 0.0 8.5 13.2 13.6 13.2 4.1 13.4 13.6 8.5 7.7 6.1 10.1 9.5 10.5 5.6 0.0 0.0 0.0 5.5 0.0 0.0 0.0 0.0
0.0 0.0 0.0 0.0 0.0 0.0 0.0 0.0 0.0 0.0 5.7 1.3 0.0 0.0 0.0 0.0 0.0 7.3 0.7 2.3 4.7 6.7 11.7 13.3 13.5 12.9 9.5 9.5 4.9 7.1 7.7 8.1 9.7 7.7 10.5 12.2 0.0 0.0 0.9 0.0 0.0 0.0 0.0 0.0
0.0 0.0 0.0 0.0 0.0 0.0 0.0 0.0 0.0 0.0 0.9 1.9 0.0 0.0 0.0 0.0 0.0 0.0 0.0 0.4 1.5 2.9 7.7 11.2 8.0 12.0 10.6 9.1 13.3 0.0 9.0 3.9 5.3 4.3 4.1 0.0 0.0 0.0 0.0 0.0 0.0 0.0 0.0 0.0
0.0 0.0 0.0 0.0 0.0 0.0 0.0 0.0 0.0 0.0 5.5 4.9 2.3 1.1 0.0 0.0 0.0 0.0 0.6 0.5 0.0 0.0 0.0 2.9 7.3 12.1 4.6 9.4 8.9 6.1 0.0 0.0 0.9 0.0 0.0 0.0 0.0 0.0 0.0 0.0 0.0 0.0 0.0 0.0
0.0 0.0 0.0 0.0 0.0 0.0 0.0 0.0 0.0 0.0 2.3 8.7 6.1 0.0 0.0 0.0 0.0 0.0 0.0 0.0 0.0 0.0 0.0 2.2 5.7 9.4 0.0 7.1 2.7 4.6 0.0 0.0 0.0 0.0 0.0 0.0 0.0 0.0 0.0 0.0 0.0 0.0 0.0 0.0
0.0 0.0 0.0 0.0 0.0 0.0 0.0 0.0 0.0 0.0 0.5 9.3 8.4 0.0 0.0 0.0 0.0 0.0 0.0 0.0 0.0 0.0 2.1 5.9 6.7 2.5 3.3 3.3 1.9 4.2 0.0 0.0 2.3 4.3 0.0 0.0 0.0 0.0 0.0 0.0 0.0 0.0 0.0 0.0
0.0 0.0 0.0 0.0 0.0 0.0 0.0 3.5 0.0 0.0 0.0 4.5 12.2 0.3 0.0 0.0 0.0 0.0 0.0 0.0 0.0 0.0 2.1 5.7 1.4 0.0 0.0 9.7 11.5 0.0 0.0 0.0 0.0 0.0 0.0 0.0 0.0 0.0 0.0 0.0 0.0 0.0 0.0 0.0
0.0 0.0 0.0 0.0 0.0 0.0 2.6 3.9 0.0 0.0 0.0 4.5 12.7 10.4 0.1 0.0 0.0 0.0 0.0 0.0 0.0 0.0 0.7 3.1 1.2 0.8 0.0 4.6 9.5 0.0 0.0 0.0 0.0 0.0 0.0 0.0 0.0 0.0 0.0 0.0 0.0 0.0 0.0 0.0
0.0 0.0 0.0 0.0 0.0 0.0 0.0 0.0 0.0 0.0 0.0 1.3 13.1 12.3 4.3 0.0 3.6 3.6 0.0 2.5 0.0 0.0 2.9 2.5 3.5 1.3 3.9 9.1 3.3 0.0 0.0 0.0 0.0 0.0 0.0 0.0 0.0 0.0 0.0 0.0 0.0 0.0 0.0 0.0
0.0 0.0 0.0 0.0 0.0 2.7 0.0 0.0 0.0 0.0 0.0 9.7 11.1 13.5 12.2 0.3 2.3 0.7 1.7 0.1 8.7 3.9 7.1 6.3 3.5 6.9 9.9 4.3 0.0 0.0 0.0 0.0 0.0 0.0 0.0 0.0 0.0 0.0 0.0 0.0 0.0 0.0 0.0 0.0
0.0 0.0 4.1 7.9 0.0 0.0 0.0 0.0 2.9 3.7 1.5 4.1 12.8 6.7 9.9 3.9 5.8 6.4 7.5 5.7 8.1 10.5 7.1 4.3 7.5 8.1 1.2 0.0 0.0 0.0 0.0 0.0 0.0 0.0 0.0 0.0 0.0 0.0 0.0 0.0 0.0 0.0 0.0 0.0
0.0 1.7 3.7 0.0 0.0 0.0 3.3 9.5 10.7 8.3 11.5 8.3 8.5 7.5 8.1 4.2 8.9 8.9 7.5 9.3 10.3 14.0 11.6 9.5 10.3 10.3 5.7 0.0 0.0 0.0 0.0 0.4 0.0 0.0 0.0 0.0 0.0 0.0 0.0 0.0 0.0 0.0 0.0 1.5
0.0 0.0 0.0 0.0 1.9 6.7 12.1 13.1 10.9 10.7 12.8 8.3 10.5 7.7 5.3 7.3 4.5 8.3 9.3 12.2 9.7 14.7 8.9 10.1 11.9 7.1 4.3 3.5 5.3 5.1 4.9 4.2 2.8 1.1 0.6 0.0 0.0 0.0 0.0 0.0 0.0 0.0 2.3 3.7
0.0 0.0 7.5 6.9 11.5 13.9 14.0 16.5 13.9 13.4 11.5 8.1 8.1 10.1 7.9 7.3 9.1 10.7 10.7 13.4 13.1 8.7 11.3 11.1 9.0 8.5 7.5 7.1 7.7 9.1 7.7 7.5 5.9 3.5 2.7 4.5 0.5 1.9 2.0 0.3 2.3 2.4 4.7 6.7
5.6 10.8 14.7 15.4 16.3 16.1 14.5 13.2 11.7 11.7 9.3 7.5 8.5 9.3 8.9 8.1 10.3 10.5 13.1 12.5 11.5 12.7 14.6 13.5 11.9 11.3 10.9 9.9 9.1 10.5 10.9 9.5 8.1 5.8 5.3 8.5 5.6 6.4 6.7 7.4 7.3 5.8 8.3 11.3
12.2 12.3 17.6 16.4 14.1 13.8 13.6 12.7 12.2 12.1 10.1 7.5 8.8 7.6 6.4 10.9 12.2 11.1 12.3 13.2 14.4 13.2 14.1 15.5 13.0 12.3 12.2 12.6 12.7 12.4 10.5 9.8 8.6 9.3 10.4 10.6 9.5 9.6 9.4 10.0 11.0 12.4 12.4 13.8
14.3 15.9 17.0 16.0 16.0 17.0 15.6 15.0 14.0 12.3 12.4 8.6 7.1 10.5 12.7 13.6 13.2 13.0 15.3 15.7 16.4 17.2 16.4 15.3 13.0 13.6 13.7 13.8 13.7 13.6 12.7 12.1 12.2 12.1 12.5 12.3 12.2 12.8 12.5 13.5 14.5 15.5 15.5 15.2
15.9 17.8 15.9 16.5 17.6 16.6 15.7 15.6 15.2 12.8 12.6 12.3 12.3 14.5 15.7 13.7 16.6 17.5 16.0 18.3 17.3 16.5 16.1 15.1 14.4 14.5 14.9 14.5 14.5 14.0 13.3 13.0 13.8 14.4 13.4 13.5 13.5 13.8 14.3 15.4 16.0 17.1 17.3 17.2